This is the latest recevied weather packets stored in our database for station/object KB3FKJ. If no packets are shown the sender has not sent any weather packets the latest 10 day(s).
| Time | Temp. | Humidity | Pressure | Rain* | Wind** | Luminosity | Snow |
|---|---|---|---|---|---|---|---|
| 1777225661 | 10° C | 77% | 1019.8 hPa | 0 mm | - | 218 W/m² | - |
| 1777225359 | 10° C | 77% | 1019.9 hPa | 0 mm | - | 209 W/m² | - |
| 1777225055 | 9.44° C | 76% | 1020 hPa | 0 mm | - | 165 W/m² | - |
| 1777224752 | 9.44° C | 80% | 1019.8 hPa | 0 mm | - | 168 W/m² | - |
| 1777224448 | 8.89° C | 78% | 1020.1 hPa | 0 mm | - | 150 W/m² | - |
| 1777224144 | 8.89° C | 76% | 1020 hPa | 0 mm | - | 154 W/m² | - |
| 1777223840 | 9.44° C | 79% | 1019.9 hPa | 0 mm | - | 157 W/m² | - |
| 1777223536 | 8.89° C | 79% | 1019.9 hPa | 0 mm | - | 154 W/m² | - |
| 1777223234 | 8.89° C | 77% | 1019.9 hPa | 0 mm | - | 164 W/m² | - |
| 1777222931 | 9.44° C | 77% | 1020 hPa | 0 mm | - | 149 W/m² | - |
| 1777222628 | 9.44° C | 80% | 1020.1 hPa | 0 mm | - | 156 W/m² | - |
| 1777222326 | 8.89° C | 80% | 1020.1 hPa | 0 mm | - | 216 W/m² | - |
| 1777222024 | 8.89° C | 78% | 1020.1 hPa | 0 mm | - | 195 W/m² | - |
| 1777221720 | 8.89° C | 79% | 1020.2 hPa | 0 mm | - | 177 W/m² | - |
| 1777221415 | 8.33° C | 79% | 1020.1 hPa | 0 mm | - | 188 W/m² | - |
| 1777221114 | 8.33° C | 82% | 1020.4 hPa | 0 mm | - | 209 W/m² | - |
| 1777220810 | 8.33° C | 78% | 1020.3 hPa | 0 mm | - | 224 W/m² | - |
| 1777220505 | 7.78° C | 81% | 1020.4 hPa | 0 mm | - | 178 W/m² | - |
| 1777220200 | 7.78° C | 81% | 1020.3 hPa | 0 mm | - | 132 W/m² | - |
| 1777219897 | 7.78° C | 81% | 1020.5 hPa | 0 mm | - | 144 W/m² | - |
| 1777219594 | 7.78° C | 81% | 1020.5 hPa | 0 mm | - | 131 W/m² | - |
| 1777219290 | 7.78° C | 84% | 1020.4 hPa | 0 mm | - | 124 W/m² | - |
| 1777218986 | 7.22° C | 84% | 1020.3 hPa | 0 mm | - | 143 W/m² | - |
| 1777218682 | 7.22° C | 82% | 1020.3 hPa | 0 mm | - | 133 W/m² | - |
| 1777218377 | 7.22° C | 83% | 1020.3 hPa | 0 mm | - | 129 W/m² | - |
* Rain latest hour (hover to see other rain measurements)
** Current wind speed in m/s (hover to see current wind gust speed)